Simultaneous Nadir Overpasses (SNOs) Predictions

Prediction of SNOs between NPP and TERRA Satellite Orbit:

Table of predicted SNOs for the next 14.0 days since TLE Epoch: 11/13/2021
Index Date (NPP) Time (NPP) Lat,Lon (NPP) SZA (NPP ) Date (TERRA) Time (TERRA) Lat,Lon (TERRA) SZA (TERRA ) Distance(km) Time Diff (sec)
1 11/13/2021 14:10:25 68.99, -34.68 87.01 11/13/2021 14:11:10 69.02, -34.69 87.04 3.37 45
2 11/13/2021 15:01:07 -68.91, 132.75 93.07 11/13/2021 15:00:40 -68.91, 132.80 93.08 1.94 27
3 11/16/2021 05:36:51 -69.72, -87.26 91.60 11/16/2021 05:38:00 -69.62, -85.67 91.68 62.64 69
4 11/16/2021 06:27:23 68.96, 81.13 87.66 11/16/2021 06:27:37 68.96, 81.11 87.66 1.01 14
5 11/16/2021 07:18:04 -68.82,-111.36 92.47 11/16/2021 07:17:07 -68.84,-111.40 92.46 2.99 57
6 11/18/2021 21:53:37 -69.05, 29.46 91.62 11/18/2021 21:54:36 -69.06, 29.47 91.62 0.46 59
7 11/18/2021 22:44:21 68.93,-163.06 88.27 11/18/2021 22:44:03 68.94,-163.03 88.28 2.22 18
8 11/18/2021 23:34:52 -68.25, 5.15 92.39 11/18/2021 23:33:42 -68.33, 3.85 92.33 54.05 70
9 11/21/2021 13:20:11 70.07, -23.58 89.99 11/21/2021 13:21:17 69.98, -21.06 89.92 96.23 66
10 11/21/2021 14:10:35 -69.03, 145.26 91.04 11/21/2021 14:11:02 -69.04, 145.32 91.03 2.97 27
11 11/21/2021 15:01:18 68.85, -47.19 88.79 11/21/2021 15:00:30 68.87, -47.25 88.81 3.43 48
12 11/24/2021 05:36:50 69.09, 93.62 89.57 11/24/2021 05:37:58 69.07, 93.60 89.55 2.62 68
13 11/24/2021 06:27:31 -68.95, -98.87 90.57 11/24/2021 06:27:28 -68.96, -98.90 90.55 1.89 3
14 11/24/2021 07:18:11 68.61, 68.90 89.11 11/24/2021 07:16:59 68.62, 68.32 89.11 23.26 72
15 11/26/2021 21:53:47 69.01,-150.52 90.01 11/26/2021 21:54:24 69.03,-150.56 90.03 2.67 37
16 11/26/2021 22:44:29 -68.92, 16.93 90.08 11/26/2021 22:43:54 -68.93, 16.95 90.07 1.18 35



Historial Predications of SNOs between NPP and TERRA
